This is the latest recevied weather packets stored in our database for station/object KQ4KX. If no packets are shown the sender has not sent any weather packets the latest 10 day(s).
| Time | Temp. | Humidity | Pressure | Rain* | Wind** | Luminosity | Snow |
|---|---|---|---|---|---|---|---|
| 1788218254 | 25.56° C | 96% | 1016.4 hPa | 0 mm | - | - | - |
| 1788217954 | 25.56° C | 97% | 1016.4 hPa | 0 mm | - | - | - |
| 1788216362 | 25.56° C | 96% | 1016.6 hPa | 0 mm | - | - | - |
| 1788216230 | 25.56° C | 96% | 1016.7 hPa | 0 mm | - | - | - |
| 1788216034 | 25.56° C | 96% | 1016.7 hPa | 0 mm | - | - | - |
| 1788215733 | 25.56° C | 96% | 1016.8 hPa | 0 mm | - | - | - |
| 1788215592 | 25.56° C | 96% | 1016.7 hPa | 0.25 mm | - | - | - |
| 1788215432 | 25.56° C | 96% | 1016.7 hPa | 0.25 mm | - | - | - |
| 1788215104 | 25.56° C | 96% | 1016.7 hPa | 0.25 mm | - | - | - |
| 1788214596 | 25.56° C | 96% | 1016.6 hPa | 0.51 mm | - | - | - |
| 1788214475 | 25.56° C | 96% | 1016.6 hPa | 0.51 mm | - | - | - |
| 1788214159 | 25.56° C | 97% | 1016.7 hPa | 1.02 mm | - | - | - |
| 1788213816 | 25.56° C | 97% | 1016.8 hPa | 1.52 mm | - | - | - |
| 1788213694 | 25.56° C | 97% | 1016.8 hPa | 1.52 mm | - | - | - |
| 1788213514 | 25.56° C | 97% | 1016.8 hPa | 1.52 mm | - | - | - |
| 1788213220 | 25.56° C | 97% | 1016.8 hPa | 1.78 mm | - | - | - |
| 1788212884 | 25.56° C | 98% | 1016.8 hPa | 2.03 mm | - | - | - |
| 1788212676 | 25.56° C | 98% | 1016.8 hPa | 2.03 mm | - | - | - |
| 1788212552 | 25.56° C | 98% | 1016.8 hPa | 2.03 mm | - | - | - |
| 1788212222 | 25.56° C | 97% | 1016.9 hPa | 2.03 mm | - | - | - |
| 1788211624 | 25.56° C | 97% | 1016.9 hPa | 2.03 mm | - | - | - |
| 1788210962 | 25.56° C | 98% | 1016.8 hPa | 2.03 mm | - | - | - |
| 1788210768 | 25.56° C | 97% | 1016.8 hPa | 2.03 mm | - | - | - |
| 1788210632 | 25.56° C | 97% | 1016.8 hPa | 2.03 mm | - | - | - |
| 1788210334 | 25.56° C | 97% | 1016.8 hPa | 1.78 mm | - | - | - |
* Rain latest hour (hover to see other rain measurements)
** Current wind speed in m/s (hover to see current wind gust speed)